Tracking 21970 objects as of 25-Nov-2020
HD Live streaming from Space Station
objects crossing your sky now

IRIDIUM 33 DEB

Track IRIDIUM 33 DEB now!
10-day predictions


NORAD ID: 37560
Int'l Code: 1997-051XV
Perigee: 693.4 km
Apogee: 824.1 km
Inclination: 86.4 °
Period: 99.9 minutes
Semi major axis: 7129 km
RCS: 0.008 m2 (small)
Launch date: September 14, 1997
Source: United States (US)
Launch site: TYURATAM MISSILE AND SPACE COMPLEX (TTMTR)

Note: This is SATELLITE DEBRIS
aabbcc
Your satellite tracking list
Your tracking list is empty




NASA's NSSDC Master Catalog

Two Line Element Set (TLE):
1 37560U 97051XV  20327.27272197  .00004578  00000-0  13195-2 0  9999
2 37560  86.3834 152.9445 0091648 327.0948 158.2310 14.42084261565374
Source of the keplerian elements: AFSPC